| time (UTC) | temp F | wind direction | speed MPH | gust MPH | rain 1hr in | rain 24hr in | rain mn in | humidity % | barometer mb |
| 20260506023135 | 61 | 268 | 4.0 | 13.0 | 0.00 | 0.04 | 0.04 | 74 | 1016.1 |
| 20260506013134 | 62 | 230 | 5.0 | 14.0 | 0.00 | 0.04 | 0.04 | 70 | 1015.9 |
| 20260506003143 | 62 | 244 | 5.0 | 13.0 | 0.00 | 0.04 | 0.04 | 71 | 1015.7 |
| 20260505233134 | 62 | 337 | 5.0 | 15.0 | 0.00 | 0.04 | 0.04 | 71 | 1015.6 |
| 20260505223135 | 63 | 219 | 6.0 | 16.0 | 0.00 | 0.04 | 0.04 | 70 | 1015.6 |
| 20260505213135 | 63 | 292 | 5.0 | 12.0 | 0.00 | 0.04 | 0.04 | 64 | 1015.9 |
| 20260505203133 | 63 | 262 | 4.0 | 15.0 | 0.00 | 0.04 | 0.04 | 66 | 1015.9 |
| 20260505195908 | 63 | 300 | 5.0 | 13.0 | 0.00 | 0.04 | 0.04 | 66 | 1016.2 |
| 20260505183133 | 61 | 288 | 4.0 | 11.0 | 0.00 | 0.04 | 0.04 | 74 | 1016.1 |
| 20260505173131 | 58 | 324 | 2.0 | 6.0 | 0.00 | 0.04 | 0.04 | 85 | 1015.8 |
| 20260505163131 | 56 | 289 | 2.0 | 7.0 | 0.00 | 0.04 | 0.04 | 86 | 1015.8 |
| 20260505153133 | 56 | 261 | 3.0 | 7.0 | 0.00 | 0.04 | 0.04 | 86 | 1015.3 |
| 20260505123132 | 53 | 227 | 0.0 | 4.0 | 0.01 | 0.04 | 0.03 | 89 | 1014.7 |
| 20260505113131 | 53 | 286 | 2.0 | 4.0 | 0.00 | 0.03 | 0.03 | 88 | 1014.9 |
| 20260505093132 | 53 | 241 | 0.0 | 4.0 | 0.02 | 0.02 | 0.00 | 88 | 1015.0 |
| 20260505083132 | 53 | 292 | 1.0 | 7.0 | 0.00 | 0.00 | 0.00 | 86 | 1015.3 |
| 20260505073132 | 54 | 293 | 4.0 | 12.0 | 0.00 | 0.00 | 0.00 | 82 | 1015.9 |
| 20260505063132 | 55 | 293 | 5.0 | 10.0 | 0.00 | 0.00 | 0.00 | 77 | 1015.5 |
| 20260505053132 | 56 | 299 | 6.0 | 13.0 | 0.00 | 0.00 | 0.00 | 76 | 1015.4 |
| 20260505033133 | 57 | 293 | 2.0 | 11.0 | 0.00 | 0.00 | 0.00 | 77 | 1014.8 |